Home   Weather   Innsbruck   Past weeks

Flag for Austria Past Weather in Innsbruck, Tyrol, Austria — Yesterday and Last 2 Weeks

Now
36 °F

Passing clouds.


Feels Like: N/A
Forecast: 34 / 49 °F
Wind: N/A

Location: Innsbruck-Flughafen

Current Time: Feb 27, 2017 at 12:55:11 am

Latest Report: Feb 27, 2017 at 12:00 am


Visibility: 14 mi

Pressure: 30.09 "Hg (28.03 "Hg at 570m altitude)

Humidity: 79%

Dew Point: 29 °F

Location of InnsbruckLocation

Past Weather in Innsbruck — Graph

°F

Innsbruck Temperature Yesterday

Maximum temperature yesterday: 50 °F (at 4:00 pm)
Minimum temperature yesterday: 28 °F (at 6:00 am)
Average temperature yesterday: 38 °F

High & Low Weather Summary for the Past Weeks

 TemperatureHumidityPressure
High68 °F (Feb 23, 2:00 pm)100% (Feb 22, 7:00 am)30.72 "Hg (Feb 22, 7:00 am)
Low26 °F (Feb 19, 8:00 am)16% (Feb 23, 3:00 pm)29.50 "Hg (Feb 23, 5:00 pm)
Average39 °F72%30.24 "Hg
* Reported Feb 11 11:00 pm — Feb 26 11:00 pm, Innsbruck, Weather by CustomWeather, © 2017

Note: Actual official high and low records may vary slightly from our data, if they occured in-between our weather recording intervals... More about our weather records

Advertising

Innsbruck Weather History for the Previous 24 Hours

Scroll right to see more
 ConditionsComfort  
Time TempWeatherWind HumidityBarometerVisibility
11:00 pm
Sun, Feb 26
38 °FPassing clouds.N/A73%30.09 "Hg8 mi
10:00 pm40 °FOvercast.N/A68%30.08 "Hg6 mi
9:00 pm40 °FOvercast.N/A65%30.08 "Hg7 mi
8:00 pm42 °FOvercast.N/A61%30.07 "Hg6 mi
7:00 pm43 °FOvercast.N/A57%30.06 "Hg6 mi
6:00 pm46 °FOvercast.N/A54%30.04 "Hg19 mi
5:00 pm49 °FOvercast.N/A38%30.03 "Hg17 mi
4:00 pm50 °FOvercast.N/A31%30.03 "Hg13 mi
3:00 pm50 °FOvercast.N/A33%30.05 "Hg10 mi
2:00 pm49 °FOvercast.N/A34%30.07 "Hg19 mi
1:00 pm46 °FOvercast.N/A38%30.10 "Hg9 mi
12:00 pm42 °FOvercast.N/A44%30.13 "Hg6 mi
11:00 am39 °FOvercast.N/A54%30.16 "Hg6 mi
10:00 am35 °FOvercast.N/A66%30.18 "Hg4 mi
9:00 am33 °FPartly sunny.N/A73%30.19 "Hg4 mi
8:00 am29 °FPartly sunny.N/A77%30.20 "Hg28 mi
7:00 am29 °FPassing clouds.N/A78%30.19 "Hg10 mi
6:00 am28 °FPassing clouds.N/A79%30.19 "Hg14 mi
5:00 am29 °FChilly.3 mph76%30.19 "Hg6 mi
4:00 am29 °FChilly.N/A77%30.21 "Hg9 mi
3:00 am29 °FChilly.N/A78%30.22 "Hg6 mi
2:00 am29 °FChilly.N/A77%30.24 "Hg7 mi
1:00 am31 °FChilly.N/A74%30.23 "Hg13 mi
12:00 am31 °FPassing clouds.N/A73%30.24 "Hg28 mi
Weather by CustomWeather, © 2017

See weather overviewHow to use our weather pages